Wind_Speed
35 36 36 37 37 37 38 38 39 39 39 41 41 42 42 42 42 42 42 42 43 43 44 44 45 46 46 46 47 47 47 46 44 41 39 37 35 33
38 38 38 39 39 39 40 40 41 41 41 42 43 43 43 43 43 43 43 44 44 43 43 44 44 45 47 47 47 47 47 47 46 43 41 39 37 35
39 39 39 39 40 40 40 41 41 42 42 42 44 44 44 44 44 44 45 44 45 44 44 44 43 43 46 47 47 47 47 46 46 44 42 41 40 37
39 38 39 39 39 39 40 40 40 41 42 42 43 44 45 45 45 45 46 45 45 45 45 45 44 44 45 48 48 48 47 47 46 45 44 43 41 39
38 37 37 37 37 38 38 38 38 39 40 41 42 43 44 44 45 45 45 46 46 45 45 45 45 45 44 47 48 49 48 48 46 45 45 44 42 40
37 36 36 35 35 36 37 37 38 38 39 40 41 42 42 43 44 45 45 46 45 45 45 45 45 45 45 46 47 48 48 48 47 46 45 44 42 40
34 34 34 33 33 34 35 36 36 37 38 39 39 40 41 42 42 43 44 45 45 45 44 44 44 45 45 46 47 48 49 48 47 46 45 44 41 39
33 33 33 33 33 33 33 34 35 35 36 37 38 39 40 41 41 42 43 43 44 45 45 45 44 44 45 45 47 48 49 49 48 47 46 43 42 40
33 32 32 32 32 31 31 32 33 34 35 36 37 37 39 40 41 41 42 43 43 45 46 45 44 43 45 45 46 47 47 48 48 47 46 44 43 41
33 32 31 31 31 30 30 30 31 32 33 34 35 37 38 39 40 41 42 43 43 44 45 45 44 43 43 44 45 46 47 48 48 48 48 46 44 42
32 31 31 31 30 30 30 30 31 32 33 34 34 35 37 38 40 40 42 43 43 44 44 44 45 43 42 43 43 46 48 48 48 49 49 48 46 44
32 31 31 31 31 30 30 31 31 32 32 32 33 34 36 38 39 40 41 43 43 44 45 44 44 44 42 42 43 45 46 47 48 48 49 49 48 46
32 31 31 31 31 30 30 30 31 31 32 32 33 33 35 36 38 40 41 43 44 44 45 46 45 44 43 42 42 44 46 47 47 48 49 49 49 47
32 32 31 31 30 29 29 29 30 30 30 31 32 33 34 34 36 39 41 42 44 45 45 46 46 45 44 42 41 42 43 45 47 48 49 49 49 48
32 32 31 30 30 29 29 29 29 29 29 29 29 30 32 33 34 36 39 42 44 45 46 45 45 45 45 44 41 42 42 42 44 46 48 49 49 49
32 31 31 31 30 29 28 28 27 27 27 27 27 27 29 31 33 34 37 40 42 44 45 45 45 44 45 44 42 41 42 41 44 46 48 49 50 50
32 31 31 30 29 28 27 26 26 25 26 25 25 26 28 29 31 33 35 38 41 43 44 45 44 44 44 45 43 42 41 41 43 46 48 49 50 50
32 31 30 29 28 26 25 25 25 24 24 25 24 24 26 28 30 32 34 37 39 41 43 46 45 45 45 44 43 42 42 41 42 43 46 48 49 50
31 31 30 28 27 25 24 24 23 23 23 23 22 22 23 25 28 31 33 35 37 39 41 44 46 46 45 44 42 42 41 42 42 42 44 47 49 49
30 30 29 27 25 24 24 23 22 22 22 21 21 21 21 22 25 29 31 34 36 38 40 43 44 45 45 45 44 42 41 40 40 41 43 45 49 50
29 28 27 25 24 24 23 23 22 21 20 20 19 19 20 21 23 27 30 33 35 37 39 41 42 44 45 45 45 44 43 42 41 41 42 44 47 49
28 27 26 25 25 24 23 22 21 20 19 19 18 18 19 19 21 25 28 31 34 35 38 40 41 43 43 45 45 45 44 44 43 43 43 43 45 47
27 27 25 24 25 25 23 22 20 20 19 19 18 17 17 18 20 23 27 29 32 35 37 39 41 41 42 44 46 46 45 45 43 43 44 44 45 48
Wind_Direction
291 288 286 284 281 277 274 272 269 266 265 263 260 257 254 251 249 248 246 244 242 241 242 241 239 237 234 233 232 232 233 233 234 235 235 236 236 238
292 289 286 283 280 277 275 272 269 266 264 263 261 259 256 253 250 248 246 245 244 242 242 240 239 238 234 233 232 231 232 233 233 234 234 234 235 236
293 289 286 282 279 277 275 272 269 267 264 262 261 259 257 254 250 248 246 245 243 242 241 240 239 238 234 232 231 231 231 232 232 233 233 233 234 235
294 290 286 283 280 277 275 273 270 267 265 263 260 259 257 254 252 248 246 244 243 242 241 239 237 237 235 231 231 230 230 231 231 232 232 233 233 234
297 292 288 285 281 278 275 273 271 268 265 263 261 259 257 254 252 249 246 243 243 242 241 239 237 236 234 232 230 230 230 230 230 231 231 232 232 233
299 295 291 286 283 279 276 273 271 269 266 264 261 259 256 254 251 248 245 243 241 240 239 238 237 235 234 232 229 228 229 230 229 229 230 230 230 231
302 298 294 289 285 282 279 275 272 269 267 265 261 258 255 253 250 247 244 241 239 238 237 237 236 235 234 232 230 228 227 228 228 227 227 227 227 229
304 300 297 293 288 284 280 276 272 270 268 266 262 258 254 251 248 246 242 239 237 236 235 234 234 234 234 232 229 228 227 226 226 225 224 224 225 227
305 301 298 296 291 286 282 279 275 272 270 266 262 257 253 250 247 244 240 237 235 235 233 231 232 231 232 232 230 228 227 224 223 222 221 222 223 223
306 303 301 298 294 289 284 282 279 275 271 266 261 257 253 250 247 243 240 236 234 233 232 230 229 230 230 230 228 226 225 225 223 221 220 220 220 221
307 303 301 299 296 291 287 284 281 277 272 269 263 258 254 250 246 243 239 236 233 231 230 228 227 227 228 228 228 227 226 224 222 220 220 219 220 222
308 305 302 300 297 293 288 285 282 278 274 271 266 261 256 251 247 243 239 235 232 231 230 227 225 224 225 226 226 225 224 223 221 220 219 220 220 221
308 305 304 302 299 294 289 286 284 280 276 272 268 263 258 252 247 242 238 235 231 229 229 228 226 223 224 224 223 223 222 221 219 219 219 219 219 219
309 306 305 304 300 295 291 288 285 282 278 273 268 262 258 252 245 240 236 233 230 228 227 227 227 225 224 224 222 221 221 220 219 218 218 218 218 217
309 307 305 304 301 297 293 290 287 284 281 277 270 263 255 249 244 239 234 231 229 226 225 226 227 227 226 223 223 222 221 221 219 218 217 216 216 216
309 308 306 305 303 299 294 291 289 286 283 280 272 264 256 249 242 237 232 229 227 225 224 225 226 225 224 222 221 220 219 219 219 217 216 215 215 214
311 309 307 306 304 300 295 292 291 289 288 284 276 267 258 250 241 235 231 228 225 223 222 223 223 223 222 222 223 221 219 219 217 217 215 213 212 212
311 311 309 307 305 301 297 294 292 290 290 287 281 271 260 250 240 233 229 226 224 222 222 222 222 221 220 221 221 221 220 218 218 217 216 214 213 212
310 311 310 308 305 301 299 296 293 291 290 288 282 274 262 249 239 232 228 225 222 221 220 220 220 219 219 219 219 220 219 218 217 216 216 214 212 211
308 310 309 307 305 302 299 298 294 292 290 287 283 274 263 250 238 232 228 224 221 219 218 218 218 218 217 217 218 219 219 218 216 216 215 213 211 210
307 308 308 307 305 303 300 297 295 292 290 287 282 273 262 250 238 231 227 223 219 218 217 217 217 217 217 217 217 218 218 219 219 217 216 213 211 210
305 307 307 305 304 303 300 297 294 290 286 285 281 271 261 252 240 230 225 221 218 217 216 215 216 217 216 216 216 217 218 217 218 219 216 213 211 209
304 306 306 305 305 303 299 295 292 288 284 282 278 269 261 250 238 229 223 220 218 216 216 215 216 216 216 216 215 215 216 216 216 217 216 215 211 209
Height
5779 5777 5775 5773 5772 5771 5770 5770 5771 5772 5773 5773 5775 5777 5780 5784 5788 5791 5795 5799 5802 5806 5811 5815 5820 5825 5830 5836 5842 5848 5854 5860 5865 5870 5875 5880 5884 5888
5768 5766 5764 5762 5760 5759 5759 5758 5759 5760 5761 5762 5763 5765 5768 5772 5776 5780 5784 5788 5792 5796 5800 5804 5809 5814 5820 5826 5832 5838 5844 5850 5856 5862 5867 5872 5876 5881
5757 5754 5752 5750 5748 5747 5746 5746 5746 5746 5748 5750 5750 5753 5756 5759 5764 5768 5772 5776 5780 5785 5789 5794 5799 5804 5809 5815 5822 5828 5835 5841 5847 5853 5858 5864 5869 5873
5745 5742 5739 5737 5736 5735 5734 5734 5734 5734 5735 5737 5738 5740 5743 5746 5750 5755 5760 5764 5769 5774 5778 5783 5789 5794 5799 5805 5811 5818 5825 5831 5838 5843 5850 5855 5861 5865
5733 5730 5727 5725 5724 5722 5722 5721 5721 5721 5722 5724 5726 5728 5730 5734 5737 5742 5747 5752 5757 5762 5767 5772 5778 5783 5788 5794 5801 5808 5815 5822 5828 5834 5840 5846 5852 5857
5722 5719 5716 5714 5712 5711 5710 5709 5709 5709 5710 5711 5714 5715 5718 5721 5725 5729 5734 5740 5745 5751 5756 5761 5767 5772 5778 5784 5791 5797 5804 5811 5818 5824 5831 5837 5843 5849
5712 5709 5706 5703 5701 5700 5699 5698 5698 5698 5698 5699 5701 5703 5706 5709 5713 5717 5722 5727 5733 5739 5745 5751 5756 5762 5767 5773 5779 5786 5794 5801 5808 5814 5821 5828 5834 5840
5703 5699 5696 5694 5691 5689 5688 5687 5687 5687 5687 5688 5689 5692 5694 5697 5700 5704 5710 5716 5722 5728 5733 5740 5745 5751 5757 5763 5769 5776 5783 5790 5797 5804 5812 5819 5825 5831
5694 5690 5687 5684 5681 5679 5677 5676 5676 5675 5676 5676 5678 5680 5682 5685 5688 5693 5697 5703 5710 5715 5722 5729 5734 5740 5746 5752 5759 5765 5772 5780 5787 5794 5802 5809 5816 5823
5686 5682 5678 5675 5672 5670 5668 5667 5665 5665 5664 5665 5666 5668 5670 5672 5676 5681 5686 5692 5698 5704 5710 5718 5724 5730 5736 5741 5748 5755 5762 5769 5777 5784 5792 5800 5807 5813
5677 5673 5669 5666 5663 5660 5658 5657 5655 5654 5653 5653 5655 5656 5658 5661 5665 5669 5675 5681 5687 5693 5699 5706 5713 5719 5725 5731 5738 5744 5752 5759 5766 5774 5782 5790 5797 5804
5669 5664 5661 5657 5654 5651 5648 5647 5645 5644 5643 5643 5643 5644 5646 5649 5652 5657 5663 5669 5675 5682 5688 5695 5701 5708 5715 5721 5728 5735 5742 5749 5756 5764 5772 5780 5787 5794
5660 5656 5652 5648 5645 5642 5639 5637 5635 5633 5632 5632 5632 5633 5634 5637 5640 5645 5651 5657 5664 5671 5677 5683 5690 5697 5705 5712 5718 5725 5732 5739 5746 5754 5761 5770 5778 5786
5652 5647 5643 5639 5636 5632 5630 5627 5625 5623 5622 5621 5621 5622 5623 5625 5629 5633 5639 5645 5652 5659 5665 5672 5680 5687 5694 5701 5708 5715 5722 5729 5737 5744 5752 5760 5768 5776
5643 5639 5635 5631 5627 5623 5620 5617 5615 5613 5612 5611 5610 5610 5612 5614 5617 5621 5627 5633 5640 5647 5655 5662 5669 5677 5685 5692 5699 5706 5713 5720 5727 5735 5743 5751 5759 5767
5635 5631 5626 5622 5618 5614 5611 5608 5606 5604 5602 5601 5600 5600 5601 5603 5606 5611 5616 5622 5629 5637 5644 5652 5659 5667 5675 5682 5690 5697 5704 5711 5718 5726 5733 5741 5749 5757
5627 5622 5618 5614 5610 5606 5603 5600 5598 5596 5593 5592 5590 5590 5591 5593 5596 5601 5606 5612 5619 5627 5634 5642 5649 5657 5664 5672 5680 5688 5695 5702 5710 5717 5724 5732 5740 5749
5619 5614 5610 5606 5602 5598 5595 5592 5590 5588 5585 5583 5582 5581 5582 5584 5587 5591 5596 5602 5609 5616 5624 5631 5638 5647 5655 5663 5672 5679 5686 5694 5701 5708 5716 5723 5731 5740
5611 5607 5602 5598 5594 5590 5588 5585 5583 5580 5578 5576 5574 5574 5574 5575 5578 5583 5588 5593 5600 5607 5614 5621 5629 5637 5646 5655 5663 5670 5677 5685 5692 5699 5707 5715 5723 5731
5604 5599 5595 5591 5587 5584 5581 5578 5576 5573 5571 5569 5568 5567 5567 5568 5571 5575 5580 5585 5591 5598 5605 5612 5620 5628 5637 5645 5653 5661 5668 5676 5684 5691 5698 5705 5714 5722
5596 5592 5588 5584 5581 5577 5574 5571 5569 5567 5565 5563 5561 5561 5561 5562 5564 5568 5572 5577 5583 5590 5597 5604 5611 5619 5627 5635 5644 5652 5660 5668 5675 5682 5689 5697 5706 5714
5589 5585 5581 5578 5574 5571 5568 5565 5563 5560 5558 5557 5555 5555 5555 5556 5558 5561 5565 5570 5576 5582 5589 5596 5603 5610 5619 5627 5635 5643 5651 5659 5666 5674 5682 5690 5698 5708
5582 5578 5574 5571 5568 5564 5561 5559 5556 5554 5553 5551 5550 5550 5549 5550 5552 5555 5559 5564 5569 5575 5581 5588 5595 5602 5610 5618 5626 5634 5642 5650 5658 5666 5674 5682 5690 5697